Weather in Savannah

United States     32°04′55″N   81°05′48″W
temp.,
°C
wind,
m/s
gust,
m/s
humid.,
%
clouds,
%
prec.,
mm/h
press.,
hPa
HPBL,
m
28 may, sat
sat2823:00+22ssw38890 0.0 1013213
02:00+21sw27890 0.1 1011154
05:00+20sw37956 0.1 1011167
08:00+23w24780 0.1 1012203
11:00+29wsw23470 0.0 10121362
14:00+32s34395 0.0 10112269
17:00+30sse444553 0.0 10111380
20:00+25sse3669100 0.0 1012215
29 may, sun
sun2923:00+24ssw257592 0.0 1013157
02:00+24ssw247897 0.1 1013134
05:00+24se117783 0.1 101414
08:00+26se24670 0.1 1015311
11:00+30se33450 0.0 10161499
14:00+31se54410 0.1 10161858
17:00+29ese55480 0.0 10151153
20:00+25e47700 0.0 1016370
30 may, mon
mon3023:00+24ese38760 0.0 1018304
02:00+23se24850 0.0 1018103
05:00+22e129033 0.1 101741
08:00+25ene238635 0.5 1019204
11:00+29e4457100 0.0 10191316
14:00+29ese445580 0.0 10191317
17:00+28ese566282 0.0 10181006
20:00+25ese3680100 0.1 1019466
31 may, tue
tue3123:00+23se2590100 0.9 1020145
02:00+23se239154 0.9 101993
05:00+22ese2294100 0.9 101869
08:00+25ese238782 0.9 1020284
11:00+29ese335935 0.3 10201351
14:00+30ese445484 1.1 10191421
17:00+29ese445768 0.1 10181074
20:00+25se357628 0.1 1018342
1 june, wed
wed123:00+23se25881 0.0 1020150
02:00+22sse22913 0.0 101876
05:00+21sse11930 0.0 101866
08:00+24n11830 0.0 1019188
11:00+30e23500 0.0 10181507
14:00+30ese54460 0.0 10171526
17:00+29se55480 0.0 1015993
20:00+25sse47740 0.0 1015519